Weather History for Petersburg, AK

Change the Weather History Date:

Tuesday, March 26, 2013

  Actual Average Record
Temperature  
Mean Temperature 36 °F -  
Max Temperature 41 °F 39 °F 55 °F (2011)
Min Temperature 30 °F 28 °F 24 °F (1993)
Degree Days  
Heating Degree Days 28    
Moisture  
Dew Point 29 °F    
Average Humidity 78    
Maximum Humidity 93    
Minimum Humidity 53    
Precipitation  
Precipitation 0.00 in - - ()
Sea Level Pressure  
Sea Level Pressure 30.09 in    
Wind  
Wind Speed 2 mph (WSW)    
Max Wind Speed 9 mph    
Max Gust Speed -    
Visibility 10 miles    
Events      
Averages and records for this station are not official NWS values.
T = Trace of Precipitation, MM = Missing Value Source: NWS Daily Summary

Daily Weather History Graph

Daily Weather History Graph

Search for Another Location

Airport:

Trip Planner

Search our weather history database for the weather conditions in past years. The results will help you decide how hot, cold, wet, or windy it might be!

Date:

Astronomy

Mar. 26, 2013 Rise Set
Actual Time 6:36 AM AKDT 7:19 PM AKDT
Civil Twilight 5:58 AM AKDT 7:57 PM AKDT
Nautical Twilight 5:11 AM AKDT 8:44 PM AKDT
Astronomical Twilight 4:21 AM AKDT 9:35 PM AKDT
Moon 7:09 PM AKDT (3/26) 5:59 AM AKDT (3/26)
Length of Visible Light 13h 59m
Length of Day
12h 43m
Full, 100% of the Moon is Illuminated
Mar 26
Full
Mar 27
Full
Apr 2
Last Quarter
Apr 10
New
Apr 18
First Quarter

Hourly Weather History & Observations

Time (AKDT) Temp. Windchill Dew Point Humidity Pressure Visibility Wind Dir Wind Speed Gust Speed Precip Events Conditions
12:16 AM 33.8 °F 29.6 °F 30.2 °F 87% 29.98 in 10.0 mi SSW 4.6 mph - N/A   Mostly Cloudy
12:36 AM 33.8 °F - 30.2 °F 87% 29.99 in 10.0 mi Calm Calm - N/A   Overcast
12:56 AM 33.8 °F - 32.0 °F 93% 29.99 in 10.0 mi Calm Calm - N/A   Overcast
1:16 AM 33.8 °F - 32.0 °F 93% 30.00 in 10.0 mi Calm Calm - N/A   Mostly Cloudy
1:36 AM 33.8 °F - 32.0 °F 93% 29.99 in 8.0 mi Calm Calm - N/A   Overcast
1:56 AM 33.8 °F - 32.0 °F 93% 30.00 in 10.0 mi Calm Calm - N/A   Overcast
2:16 AM 33.8 °F - 30.2 °F 87% 30.00 in 10.0 mi Calm Calm - N/A   Overcast
2:36 AM 33.8 °F 30.8 °F 30.2 °F 87% 30.00 in 10.0 mi West 3.5 mph - N/A   Overcast
2:56 AM 33.8 °F 29.6 °F 32.0 °F 93% 30.00 in 10.0 mi WSW 4.6 mph - N/A   Overcast
3:16 AM 35.6 °F - 32.0 °F 87% 30.01 in 9.0 mi Calm Calm - N/A   Overcast
3:36 AM 35.6 °F - 32.0 °F 87% 30.00 in 10.0 mi Calm Calm - N/A   Overcast
3:56 AM 35.6 °F - 32.0 °F 87% 30.01 in 10.0 mi Calm Calm - N/A   Overcast
4:16 AM 33.8 °F - 30.2 °F 87% 30.01 in 10.0 mi Calm Calm - N/A   Overcast
4:36 AM 33.8 °F - 30.2 °F 87% 30.01 in 10.0 mi Calm Calm - N/A   Mostly Cloudy
4:56 AM 33.8 °F 30.8 °F 30.2 °F 87% 30.01 in 10.0 mi SW 3.5 mph - N/A   Overcast
5:16 AM 33.8 °F 30.8 °F 32.0 °F 93% 30.01 in 9.0 mi ENE 3.5 mph - N/A   Mostly Cloudy
5:36 AM 33.8 °F - 30.2 °F 87% 30.02 in 10.0 mi Calm Calm - N/A   Overcast
5:56 AM 33.8 °F - 32.0 °F 93% 30.03 in 10.0 mi Calm Calm - N/A   Mostly Cloudy
6:16 AM 33.8 °F 29.6 °F 30.2 °F 87% 30.03 in 10.0 mi SSW 4.6 mph - N/A   Mostly Cloudy
6:36 AM 33.8 °F - 30.2 °F 87% 30.03 in 10.0 mi Calm Calm - N/A   Mostly Cloudy
6:56 AM 33.8 °F 29.6 °F 30.2 °F 87% 30.04 in 10.0 mi SW 4.6 mph - N/A   Overcast
7:16 AM 33.8 °F 30.8 °F 30.2 °F 87% 30.04 in 10.0 mi WSW 3.5 mph - N/A   Overcast
7:36 AM 33.8 °F 30.8 °F 32.0 °F 93% 30.04 in 10.0 mi WSW 3.5 mph - N/A   Overcast
7:56 AM 33.8 °F - 32.0 °F 93% 30.05 in 10.0 mi Calm Calm - N/A   Mostly Cloudy
8:16 AM 35.6 °F - 32.0 °F 87% 30.05 in 10.0 mi Calm Calm - N/A   Mostly Cloudy
8:36 AM 35.6 °F - 32.0 °F 87% 30.05 in 10.0 mi Calm Calm - N/A   Mostly Cloudy
8:56 AM 37.4 °F - 33.8 °F 87% 30.05 in 10.0 mi Calm Calm - N/A   Mostly Cloudy
9:16 AM 37.4 °F 33.8 °F 33.8 °F 87% 30.06 in 10.0 mi West 4.6 mph - N/A   Mostly Cloudy
9:36 AM 37.4 °F 34.9 °F 32.0 °F 81% 30.07 in 10.0 mi WSW 3.5 mph - N/A   Mostly Cloudy
9:56 AM 39.2 °F - 30.2 °F 70% 30.07 in 10.0 mi Calm Calm - N/A   Mostly Cloudy
10:16 AM 37.4 °F 33.8 °F 33.8 °F 87% 30.08 in 10.0 mi East 4.6 mph - N/A   Mostly Cloudy
10:36 AM - - - N/A% 30.07 in 10.0 mi Calm Calm - N/A   Mostly Cloudy
10:56 AM 39.2 °F - 32.0 °F 75% 30.09 in 10.0 mi Calm Calm - N/A   Mostly Cloudy
11:16 AM 39.2 °F 35.9 °F 28.4 °F 65% 30.09 in 10.0 mi West 4.6 mph - N/A   Mostly Cloudy
11:36 AM 39.2 °F 35.9 °F 28.4 °F 65% 30.10 in 10.0 mi SW 4.6 mph - N/A   Mostly Cloudy
11:56 AM 39.2 °F - 26.6 °F 61% 30.10 in 10.0 mi Calm Calm - N/A   Mostly Cloudy
12:16 PM 39.2 °F 34.2 °F 26.6 °F 61% 30.10 in 10.0 mi WSW 6.9 mph - N/A   Mostly Cloudy
12:36 PM 39.2 °F 37.0 °F 28.4 °F 65% 30.11 in 10.0 mi SW 3.5 mph - N/A   Mostly Cloudy
12:56 PM 39.2 °F - 26.6 °F 61% 30.11 in 10.0 mi Calm Calm - N/A   Overcast
1:16 PM 39.2 °F 37.0 °F 26.6 °F 61% 30.12 in 10.0 mi WSW 3.5 mph - N/A   Overcast
1:36 PM 39.2 °F 37.0 °F 26.6 °F 61% 30.12 in 10.0 mi West 3.5 mph - N/A   Overcast
1:56 PM 39.2 °F 35.9 °F 26.6 °F 61% 30.12 in 10.0 mi WSW 4.6 mph - N/A   Mostly Cloudy
2:16 PM 41.0 °F 38.0 °F 24.8 °F 53% 30.12 in 10.0 mi WSW 4.6 mph - N/A   Mostly Cloudy
2:36 PM 41.0 °F 38.0 °F 24.8 °F 53% 30.12 in 10.0 mi WSW 4.6 mph - N/A   Mostly Cloudy
2:56 PM 41.0 °F 37.1 °F 26.6 °F 57% 30.13 in 10.0 mi West 5.8 mph - N/A   Scattered Clouds
3:16 PM 41.0 °F - 24.8 °F 53% 30.13 in 10.0 mi Calm Calm - N/A   Scattered Clouds
3:36 PM 41.0 °F 35.2 °F 28.4 °F 61% 30.13 in 10.0 mi NNE 9.2 mph - N/A   Scattered Clouds
3:56 PM 39.2 °F 33.6 °F 28.4 °F 65% 30.14 in 10.0 mi NNE 8.1 mph - N/A   Scattered Clouds
4:16 PM 39.2 °F 34.2 °F 28.4 °F 65% 30.14 in 10.0 mi NNE 6.9 mph - N/A   Scattered Clouds
4:36 PM 39.2 °F 34.2 °F 26.6 °F 61% 30.14 in 10.0 mi North 6.9 mph - N/A   Scattered Clouds
4:56 PM 39.2 °F 35.9 °F 26.6 °F 61% 30.14 in 10.0 mi NE 4.6 mph - N/A   Mostly Cloudy
5:16 PM 39.2 °F - 28.4 °F 65% 30.14 in 10.0 mi Calm Calm - N/A   Mostly Cloudy
5:36 PM 39.2 °F - 28.4 °F 65% 30.14 in 10.0 mi Calm Calm - N/A   Mostly Cloudy
5:56 PM 39.2 °F 37.0 °F 28.4 °F 65% 30.14 in 10.0 mi East 3.5 mph - N/A   Scattered Clouds
6:16 PM 39.2 °F - 28.4 °F 65% 30.14 in 10.0 mi Calm Calm - N/A   Scattered Clouds
6:36 PM 39.2 °F - 28.4 °F 65% 30.14 in 10.0 mi Calm Calm - N/A   Scattered Clouds
6:56 PM 37.4 °F - 30.2 °F 75% 30.14 in 10.0 mi Calm Calm - N/A   Scattered Clouds
7:16 PM 35.6 °F 32.8 °F 30.2 °F 81% 30.14 in 10.0 mi South 3.5 mph - N/A   Scattered Clouds
7:36 PM 33.8 °F 30.8 °F 30.2 °F 87% 30.14 in 10.0 mi South 3.5 mph - N/A   Scattered Clouds
7:56 PM 33.8 °F - 28.4 °F 81% 30.15 in 10.0 mi Calm Calm - N/A   Scattered Clouds
8:16 PM 33.8 °F 29.6 °F 28.4 °F 81% 30.15 in 10.0 mi WSW 4.6 mph - N/A   Scattered Clouds
8:36 PM 33.8 °F 29.6 °F 30.2 °F 87% 30.15 in 10.0 mi SW 4.6 mph - N/A   Scattered Clouds
8:56 PM 33.8 °F 29.6 °F 28.4 °F 81% 30.15 in 10.0 mi SW 4.6 mph - N/A   Scattered Clouds
9:16 PM 33.8 °F 30.8 °F 28.4 °F 81% 30.15 in 10.0 mi WSW 3.5 mph - N/A   Scattered Clouds
9:36 PM 33.8 °F 30.8 °F 28.4 °F 81% 30.16 in 10.0 mi SW 3.5 mph - N/A   Scattered Clouds
9:56 PM 33.8 °F 29.6 °F 28.4 °F 81% 30.16 in 10.0 mi SW 4.6 mph - N/A   Mostly Cloudy
10:16 PM 33.8 °F 29.6 °F 28.4 °F 81% 30.16 in 10.0 mi SW 4.6 mph - N/A   Mostly Cloudy
10:36 PM 33.8 °F 29.6 °F 28.4 °F 81% 30.16 in 10.0 mi SW 4.6 mph - N/A   Mostly Cloudy
10:56 PM 33.8 °F 29.6 °F 28.4 °F 81% 30.17 in 10.0 mi SW 4.6 mph - N/A   Scattered Clouds
11:16 PM 32.0 °F 26.4 °F 26.6 °F 80% 30.17 in 10.0 mi SSW 5.8 mph - N/A   Scattered Clouds
11:36 PM 32.0 °F 28.7 °F 26.6 °F 80% 30.17 in 10.0 mi SW 3.5 mph - N/A   Partly Cloudy
11:56 PM 30.2 °F 26.7 °F 26.6 °F 86% 30.17 in 10.0 mi South 3.5 mph - N/A   Clear